This demonstration page uses our WeatherBlox Daily Observations layout. Learn more.

Left ArrowRight Arrow

39.12711, -84.51439

Hourly Observations for January 12, 2022

Temp ( °F °C ) Dew Point ( °F °C ) Humidity (%) Winds ( mph kmh ) Pressure ( in mb ) Visibility ( mi km ) Precip ( " mm )
12:53 am 00:53 Clear 32 0 17 -8.3 54 54 SSW 13 20 30.27 1025 10 16 0.00 0.00
1:53 am 01:53 Clear 33 0.6 17 -8.3 52 52 SSW 15 24 30.24 1024 10 16 0.00 0.00
2:53 am 02:53 Clear 34 1.1 18 -7.8 52 52 SSW 18 30 30.23 1024 10 16 0.00 0.00
3:53 am 03:53 Clear 35 1.7 18 -7.8 50 50 SW 17 28 30.20 1023 10 16 0.00 0.00
4:53 am 04:53 Clear 36 2.2 19 -7.2 50 50 SSW 18 30 30.19 1022 10 16 0.00 0.00
5:53 am 05:53 Clear 36 2.2 20 -6.7 52 52 SW 13 20 30.19 1022 10 16 0.00 0.00
6:53 am 06:53 Clear 35 1.7 20 -6.7 54 54 SW 8 13 30.19 1022 10 16 0.00 0.00
7:53 am 07:53 Clear 35 1.7 21 -6.1 57 57 SSW 12 19 30.19 1022 10 16 0.00 0.00
8:53 am 08:53 Sunny 36 2.2 21 -6.1 55 55 SSW 10 17 30.19 1022 10 16 0.00 0.00
9:53 am 09:53 Sunny 40 4.4 22 -5.6 49 49 WSW 5 7 30.19 1022 10 16 0.00 0.00
10:53 am 10:53 Sunny 44 6.7 24 -4.4 45 45 SW 14 22 30.18 1022 10 16 0.00 0.00
11:53 am 11:53 Sunny 46 7.8 25 -3.9 44 44 SSW 9 15 30.15 1021 10 16 0.00 0.00
12:53 pm 12:53 Sunny 47 8.3 25 -3.9 42 42 SW 9 15 30.13 1020 10 16 0.00 0.00
1:53 pm 13:53 Sunny 47 8.3 26 -3.3 44 44 SSW 13 20 30.10 1019 10 16 0.00 0.00
2:53 pm 14:53 Sunny 48 8.9 26 -3.3 42 42 SSW 9 15 30.08 1019 10 16 0.00 0.00
3:53 pm 15:53 Sunny 48 8.9 27 -2.8 44 44 SSW 10 17 30.08 1019 10 16 0.00 0.00
4:53 pm 16:53 Mostly Sunny 48 8.9 27 -2.8 44 44 SSW 8 13 30.08 1019 10 16 0.00 0.00
5:53 pm 17:53 Partly Cloudy 44 6.7 27 -2.8 51 51 S 5 7 30.08 1019 10 16 0.00 0.00
6:53 pm 18:53 Clear 38 3.3 28 -2.2 68 68 Calm 30.07 1018 10 16 0.00 0.00
7:53 pm 19:53 Clear 36 2.2 29 -1.7 76 76 Calm 30.08 1019 10 16 0.00 0.00
8:53 pm 20:53 Clear 36 2.2 30 -1.1 79 79 Calm 30.07 1018 10 16 0.00 0.00
9:53 pm 21:53 Clear 36 2.2 30 -1.1 79 79 Calm 30.07 1018 10 16 0.00 0.00
10:53 pm 22:53 Clear 32 0 28 -2.2 85 85 Calm 30.06 1018 10 16 0.00 0.00
11:53 pm 23:53 Clear 32 0 29 -1.7 88 88 Calm 30.04 1017 10 16 0.00 0.00

Powered by AerisWeather